Location: Varese
(45.8000°N, 8.8330°E)
Time: 01:29:24
(UTC+02:00)

ISS - Pass Details

Date: 19 May 2021
Orbit: 417 x 422 km, 51.6° (Epoch: 14 June)

Event Time Altitude Azimuth Distance (km) Brightness Sun altitude
Rises 23:41:57 0° 286° (WNW) 2,365 0.7 -20.5°
Reaches altitude 10° 23:44:14 10° 298° (WNW) 1,502 -0.2 -20.7°
Maximum altitude 23:47:13 29° 1° (N) 809 -1.7 -20.9°
Drops below altitude 10° 23:50:13 10° 63° (ENE) 1,505 -0.9 -21.1°
Enters shadow 23:50:24 - 65° (ENE) 1,568 -0.8 -21.1°
